Lexington Weather

Lexington, Massachusetts, USA

40°F
3/2/2024 9:05am 
  • Lexington Conditions: Overcast
  • Temperature: 39.7°F / 4.3°CWarmer 1.8°F than last hour.
  • Dew Point: 33.4°FIncreased 1.0°Fsince last hour.
  • Relative Humidity: 78%Decreased 2.0% since last hour.
  • Wind: Calm, 10-min avg: Calm, gust: 1 mph
  • Barometer: 30.44 in Steady
  • Visibility: 10 miles
  • Rain Today: 0.00 in
  •   

Regional Weather Roundup
for Boston, MA

        
000
ASUS41 KBOX 251910
RWRBOX

REGIONAL WEATHER ROUNDUP
NATIONAL WEATHER SERVICE BOSTON/NORTON MA
200 PM EST SUN FEB 25 2024

NOTE:  "FAIR" INDICATES FEW OR NO CLOUDS BELOW 12,000 FEET WITH NO 
SIGNIFICANT WEATHER AND/OR OBSTRUCTIONS TO VISIBILITY.

MAZALL-252000-
EASTERN MASSACHUSETTS
  
CITY           SKY/WX    TMP DP  RH WIND       PRES   REMARKS
BOSTON         MOSUNNY   33  12  41 VRB6      30.09F WCI  28          
BEVERLY        SUNNY     32   1  26 S5        30.08F WCI  27          
LAWRENCE       SUNNY     34   0  23 NW5       30.09F WCI  30          
BEDFORD        SUNNY     34  -1  22 SW8       30.07F WCI  27          
NORWOOD        SUNNY     37   3  24 VRB3      30.09F                  
MARSHFIELD     SUNNY     30  14  51 E7        30.10F WCI  23          
PLYMOUTH       SUNNY     35  -4  18 SW9       30.08F WCI  28          
TAUNTON        SUNNY     36   5  27 S8        30.10F WCI  30          
NEW BEDFORD    SUNNY     34  15  46 SE12      30.10F WCI  25          
$$

MAZALL-252000-
CAPE COD AND THE ISLANDS
  
CITY           SKY/WX    TMP DP  RH WIND       PRES   REMARKS
FALMOUTH       SUNNY     32  10  40 SW9       30.11S WCI  24          
HYANNIS        SUNNY     31  16  54 SW10G17   30.10S WCI  22          
CHATHAM        SUNNY     32  18  56 SW5       30.12S WCI  27          
PROVINCETOWN   SUNNY     31  16  54 SW5       30.12F WCI  26          
NANTUCKET      SUNNY     32  21  64 S9        30.12F WCI  24          
MARTHAS VNYRD  SUNNY     32  17  54 S12       30.12S WCI  23          
$$
 
MAZALL-252000-
CENTRAL AND WESTERN MASSACHUSETTS
  
CITY           SKY/WX    TMP DP  RH WIND       PRES   REMARKS
WORCESTER      SUNNY     34   4  28 SW6       30.02F WCI  29          
FITCHBURG      SUNNY     37   6  27 VRB3      30.05F                  
ORANGE         SUNNY     33   7  33 S8        30.05F WCI  26          
SPRINGFIELD    MOSUNNY   34   5  29 S8        30.05F WCI  27          
WESTFIELD      SUNNY     36   9  32 S7        30.06F WCI  30          
NORTH ADAMS    SUNNY     37  13  37 SE3       30.03F                  
PITTSFIELD     SUNNY     34  12  40 VRB3      29.99F                  
$$
 
RIZALL-252000-
RHODE ISLAND
  
CITY           SKY/WX    TMP DP  RH WIND       PRES   REMARKS
PROVIDENCE     SUNNY     34   6  31 S7        30.10F WCI  28          
NEWPORT        SUNNY     31  11  43 S9        30.10F WCI  23          
BLOCK ISLAND   SUNNY     30  10  43 SW9       30.13F WCI  22          
SMITHFIELD     SUNNY     36   1  22 S6        30.07F WCI  31          
WESTERLY       SUNNY     31   9  39 SW7       30.12F WCI  24          
$$
 
CTZALL-252000-
CONNECTICUT
  
CITY           SKY/WX    TMP DP  RH WIND       PRES   REMARKS
BRADLEY INTL   SUNNY     36  10  34 S12       30.07F WCI  28          
HARTFORD       SUNNY     36  11  35 VRB5      30.09F                  
PLAINVILLE     FAIR      37   9  32 VRB6      30.07F WCI  32          
BRIDGEPORT     SUNNY     34  10  37 SW12      30.12F WCI  25          
DANBURY        SUNNY     37   8  30 W6        30.09F                  
GROTON         SUNNY     31  14  49 SW12      30.12F WCI  22          
NEW HAVEN      SUNNY     33  17  51 SW10      30.12F WCI  25          
CHESTER        SUNNY     36   7  30 VRB5      30.09F WCI  32          
MERIDEN        SUNNY     36   9  32 S8        30.09F WCI  30          
WILLIMANTIC    SUNNY     35   7  31 VRB3      30.09F                  
OXFORD         SUNNY     34  10  37 SW7       30.07F WCI  28          
$$

MEZ002-015-021-024-NHZ003-005-008-011-012-014-VTZ005-008-252000-
NORTHERN NEW ENGLAND
  
CITY           SKY/WX    TMP DP  RH WIND       PRES   REMARKS
PORTLAND ME    MOSUNNY   27  15  61 S13       30.08F WCI  16          
BANGOR ME      SUNNY     29   1  30 W9        30.04F WCI  20          
CONCORD NH     SUNNY     33   2  26 VRB5      30.05F WCI  29          
MANCHESTER NH  SUNNY     36   1  22 S5        30.04F                  
NASHUA NH      SUNNY     36   1  22 CALM      30.06F                  
PORTSMOUTH NH  SUNNY     33   7  33 SE7       30.07F WCI  26          
JAFFREY NH     SUNNY     34   7  32 VRB7      30.00F WCI  28          
KEENE NH       SUNNY     34   3  27 VRB6      30.04F WCI  29          
BURLINGTON VT  PTSUNNY   33   8  35 S15G25    29.96F WCI  23          
MT. WASHINGTON MOSUNNY   14 -15  26 W35         N/A  WCI  -8          
$$

NYZ052-076-252000-
EASTERN NEW YORK
  
CITY           SKY/WX    TMP DP  RH WIND       PRES   REMARKS
ALBANY         MOSUNNY   36  11  35 S9        30.07F WCI  29          
NEW YORK CITY  MOSUNNY   37   8  30 SW6       30.12F                  
$$
 
ANZALL-252000-
MARINE OBSERVATIONS
  
STATION/POSITION TIME  TEMP    WIND        PRES    VSBY  WAVE
                       AIR SEA DIR/SP/G                  HT/PER
                 (UTC) (F)     (DEG/KT/KT) (MB)    (MI)  (FT/S)
BOSTON BUOY      1850   27 40  140/  4/  8 1019.0F         2/11
BUZZARDS BAY     1800   26     200/  7/  8 1020.9F
NANTUCKET SOUND  1850   31 38  190/  4/  6 1019.6F         1/ 4
MASS BAY-STELLWA 1704   24 40  220/  6/ 10 1020.4F  1 7/8  2/11
ISLE OF SHOALS   1800   24     160/  7/  8 1018.9F
S OF BLOCK IS    1856      41                N/A           4/11
$$

......................KEY.........................
  SKY/WX - SKY CONDITION/PRESENT WEATHER
  TMP    - TEMPERATURE IN FAHRENHEIT
  DWPT   - DEWPOINT IN FAHRENHEIT
  RH     - RELATIVE HUMIDITY IN PERCENT
  WIND   - DIRECTION AND SPEED IN MPH
  PRES   - MEAN SEA LEVEL PRESSURE IN INCHES OF HG
  WCI    - WIND CHILL INDEX
  VSB    - VISIBILITY IN MILES
  HX     - HEAT INDEX
  TC     - TEMPERATURE IN CELSIUS
  VRB    - VARIABLE WIND DIRECTION
  N/A    - NOT AVAILABLE
  
      

Other recent Regional Weather Roundups

Sat Mar 2, 8:10am EST

Sat Mar 2, 7:10am EST

Sat Mar 2, 6:10am EST

Sat Mar 2, 5:10am EST

Sat Mar 2, 4:10am EST

Sat Mar 2, 3:10am EST

Sat Mar 2, 2:10am EST

Sat Mar 2, 1:10am EST

Sat Mar 2, 12:10am EST

Fri Mar 1, 11:10pm EST

Fri Mar 1, 10:10pm EST

Fri Mar 1, 9:10pm EST

Fri Mar 1, 8:10pm EST

Fri Mar 1, 7:10pm EST

Fri Mar 1, 6:10pm EST

Fri Mar 1, 5:10pm EST

Fri Mar 1, 4:10pm EST

Fri Mar 1, 3:10pm EST

Fri Mar 1, 2:10pm EST

Fri Mar 1, 1:10pm EST

Fri Mar 1, 12:10pm EST

Fri Mar 1, 11:10am EST

Fri Mar 1, 10:10am EST

Fri Mar 1, 9:10am EST

Fri Mar 1, 8:10am EST

Fri Mar 1, 7:10am EST

Fri Mar 1, 6:10am EST

Fri Mar 1, 5:10am EST

Fri Mar 1, 4:10am EST

Fri Mar 1, 3:10am EST

Fri Mar 1, 2:10am EST

Fri Mar 1, 1:10am EST

Fri Mar 1, 12:10am EST

Thu Feb 29, 11:10pm EST

Thu Feb 29, 10:10pm EST

Thu Feb 29, 9:10pm EST

Thu Feb 29, 8:10pm EST

Thu Feb 29, 7:10pm EST

Thu Feb 29, 6:10pm EST

Thu Feb 29, 5:10pm EST

Thu Feb 29, 4:10pm EST

Thu Feb 29, 3:10pm EST

Thu Feb 29, 2:10pm EST

Thu Feb 29, 1:10pm EST

Thu Feb 29, 12:10pm EST

Thu Feb 29, 11:10am EST

Thu Feb 29, 10:10am EST

Thu Feb 29, 9:10am EST

Thu Feb 29, 8:10am EST

Thu Feb 29, 7:10am EST

Thu Feb 29, 6:10am EST

Thu Feb 29, 5:10am EST

Thu Feb 29, 4:10am EST

Thu Feb 29, 3:10am EST

Thu Feb 29, 2:10am EST

Thu Feb 29, 1:10am EST

Thu Feb 29, 12:10am EST

Wed Feb 28, 11:10pm EST

Wed Feb 28, 10:10pm EST

Wed Feb 28, 9:10pm EST

Wed Feb 28, 8:10pm EST

Wed Feb 28, 7:10pm EST

Wed Feb 28, 6:10pm EST

Wed Feb 28, 5:10pm EST

Wed Feb 28, 4:10pm EST

Wed Feb 28, 3:10pm EST

Wed Feb 28, 2:10pm EST

Wed Feb 28, 1:10pm EST

Wed Feb 28, 12:10pm EST

Wed Feb 28, 11:10am EST

Wed Feb 28, 10:10am EST

Wed Feb 28, 9:10am EST

Wed Feb 28, 8:10am EST

Wed Feb 28, 7:10am EST

Wed Feb 28, 6:10am EST

Wed Feb 28, 5:10am EST

Wed Feb 28, 4:10am EST

Wed Feb 28, 3:10am EST

Wed Feb 28, 2:10am EST

Wed Feb 28, 1:10am EST

Wed Feb 28, 12:10am EST

Tue Feb 27, 11:10pm EST

Tue Feb 27, 10:10pm EST

Tue Feb 27, 9:10pm EST

Tue Feb 27, 8:10pm EST

Tue Feb 27, 7:10pm EST

Tue Feb 27, 6:10pm EST

Tue Feb 27, 5:10pm EST

Tue Feb 27, 4:10pm EST

Tue Feb 27, 3:10pm EST

Tue Feb 27, 2:10pm EST

Tue Feb 27, 1:10pm EST

Tue Feb 27, 12:10pm EST

Tue Feb 27, 11:10am EST

Tue Feb 27, 10:10am EST

Tue Feb 27, 9:10am EST

Tue Feb 27, 8:10am EST

Tue Feb 27, 7:10am EST

Tue Feb 27, 6:10am EST

Tue Feb 27, 5:10am EST

Tue Feb 27, 4:10am EST

Tue Feb 27, 3:10am EST

Tue Feb 27, 2:10am EST

Tue Feb 27, 1:10am EST

Tue Feb 27, 12:10am EST

Mon Feb 26, 11:10pm EST

Mon Feb 26, 10:10pm EST

Mon Feb 26, 9:10pm EST

Mon Feb 26, 8:10pm EST

Mon Feb 26, 7:10pm EST

Mon Feb 26, 6:10pm EST

Mon Feb 26, 5:10pm EST

Mon Feb 26, 4:10pm EST

Mon Feb 26, 3:10pm EST

Mon Feb 26, 2:10pm EST

Mon Feb 26, 1:10pm EST

Mon Feb 26, 12:10pm EST

Mon Feb 26, 11:10am EST

Mon Feb 26, 10:10am EST

Mon Feb 26, 9:10am EST

Mon Feb 26, 8:10am EST

Mon Feb 26, 7:10am EST

Mon Feb 26, 6:10am EST

Mon Feb 26, 5:10am EST

Mon Feb 26, 4:10am EST

Mon Feb 26, 3:10am EST

Mon Feb 26, 2:10am EST

Mon Feb 26, 1:10am EST

Mon Feb 26, 12:10am EST

Sun Feb 25, 11:10pm EST

Sun Feb 25, 10:10pm EST

Sun Feb 25, 9:10pm EST

Sun Feb 25, 8:10pm EST

Sun Feb 25, 7:10pm EST

Sun Feb 25, 6:10pm EST

Sun Feb 25, 5:10pm EST

Sun Feb 25, 4:10pm EST

Sun Feb 25, 3:10pm EST

Sun Feb 25, 1:10pm EST

Sun Feb 25, 12:10pm EST

Sun Feb 25, 11:10am EST

Sun Feb 25, 10:10am EST

Sun Feb 25, 9:10am EST

Sun Feb 25, 8:10am EST

Sun Feb 25, 7:10am EST

Sun Feb 25, 6:10am EST

Sun Feb 25, 5:10am EST

Sun Feb 25, 4:10am EST

Sun Feb 25, 3:10am EST

Sun Feb 25, 2:10am EST

Sun Feb 25, 1:10am EST

Sun Feb 25, 12:10am EST

Sat Feb 24, 11:10pm EST

Sat Feb 24, 10:10pm EST

Sat Feb 24, 9:10pm EST

Sat Feb 24, 8:10pm EST

Sat Feb 24, 7:10pm EST

Sat Feb 24, 6:10pm EST

Sat Feb 24, 5:10pm EST

Sat Feb 24, 4:10pm EST

Sat Feb 24, 3:10pm EST

Sat Feb 24, 2:10pm EST

Sat Feb 24, 1:10pm EST

Sat Feb 24, 12:10pm EST

Sat Feb 24, 11:10am EST

Sat Feb 24, 10:10am EST

Sat Feb 24, 9:10am EST